User: anonymous
Location: Caltech
(34.1382°N, 118.1253°W)
Time: 02:17:51
(UTC-07:00)
Language:

CZ-4B DEB - Orbit

View from above orbital plane
View from above orbital plane
View from above satellite
View from above satellite

Ground track
Ground track

The orbit data is extracted from the following two-line orbital elements,

1 27433U 02024D   14112.87383223  .00000675  00000-0  39582-3 0  8067
2 27433 098.8212 079.5410 0015855 067.8567 344.8407 14.11517722614710
Epoch (UTC): 22 April 2014 20:58:19
Eccentricity: 0.0015855
inclination: 98.8212°
perigee height: 843 km
apogee height: 865 km
right ascension of ascending node: 79.5410°
argument of perigee: 67.8567°
revolutions per day: 14.11517722
mean anomaly at epoch: 344.8407°
orbit number at epoch: 61471

The dashed part of the orbit path shows where the satellite is in the earth's shadow,  

DLR